FW8019 Weather Reports


time (UTC)temp
C
wind
direction
speed
KPH
gust
KPH
rain 1hr
cm
rain 24hr
cm
rain mn
cm
humidity
%
barometer
mb
20260507014854 22 171 0.0 0.0 0.00 0.00 0.00 94 1013.7
20260507014350 22 162 1.6 1.6 0.00 0.00 0.00 93 1013.7
20260507013847 22 166 0.0 1.6 0.00 0.00 0.00 93 1013.6
20260507013344 22 157 0.0 0.0 0.00 0.00 0.00 93 1013.7
20260507012842 22 172 0.0 0.0 0.00 0.00 0.00 93 1013.6
20260507012338 22 173 0.0 0.0 0.00 0.00 0.00 94 1013.8
20260507011835 22 167 0.0 1.6 0.00 0.00 0.00 93 1013.8
20260507011332 22 170 0.0 0.0 0.00 0.00 0.00 93 1014.1
20260507010832 22 178 0.0 1.6 0.00 0.00 0.00 93 1014.1
20260507010328 22 162 0.0 0.0 0.00 0.00 0.00 93 1014.2
20260507005825 22 163 0.0 0.0 0.00 0.00 0.00 93 1014.3
20260507005322 22 168 0.0 0.0 0.00 0.00 0.00 93 1014.2
20260507004818 22 169 0.0 0.0 0.00 0.00 0.00 93 1014.0
20260507004315 22 189 0.0 0.0 0.00 0.00 0.00 93 1013.8
20260507003812 22 165 0.0 0.0 0.00 0.00 0.00 93 1014.0
20260507003302 22 158 0.0 0.0 0.00 0.00 0.00 92 1014.1
20260507002757 22 121 1.6 1.6 0.00 0.00 0.00 92 1014.0
20260507002254 22 175 0.0 0.0 0.00 0.00 0.00 92 1014.0
20260507001751 22 190 1.6 3.2 0.00 0.00 0.00 91 1014.0
20260507001248 23 187 1.6 1.6 0.00 0.00 0.00 91 1013.8
20260507000744 23 180 0.0 1.6 0.00 0.00 0.00 90 1013.9
20260507000240 23 182 1.6 1.6 0.00 0.00 0.00 90 1013.9
20260506235737 23 167 0.0 0.0 0.00 0.00 0.00 89 1014.3
20260506235232 23 182 0.0 1.6 0.00 0.00 0.00 89 1014.3
20260506234730 23 171 0.0 0.0 0.00 0.00 0.00 89 1014.2
20260506234227 23 174 1.6 1.6 0.00 0.00 0.00 88 1014.2
20260506233724 23 177 0.0 0.0 0.00 0.00 0.00 87 1014.1
20260506233221 23 166 0.0 0.0 0.00 0.00 0.00 87 1014.0
20260506232717 23 164 0.0 0.0 0.00 0.00 0.00 86 1013.9
20260506232212 23 175 1.6 1.6 0.00 0.00 0.00 85 1014.0
20260506231710 23 172 0.0 1.6 0.00 0.00 0.00 85 1014.1
20260506231208 23 169 0.0 0.0 0.00 0.00 0.00 84 1014.3
20260506230704 23 171 0.0 0.0 0.00 0.00 0.00 84 1014.4
20260506230201 24 177 1.6 1.6 0.00 0.00 0.00 84 1014.1
20260506225658 24 161 0.0 0.0 0.00 0.00 0.00 85 1014.0
20260506225155 24 163 0.0 0.0 0.00 0.00 0.00 85 1014.0
20260506224651 24 162 0.0 1.6 0.00 0.00 0.00 84 1013.9
20260506224148 24 175 0.0 0.0 0.00 0.00 0.00 84 1013.9
20260506223645 24 179 0.0 0.0 0.00 0.00 0.00 83 1013.8
20260506223140 25 162 0.0 0.0 0.00 0.00 0.00 82 1013.8
20260506222637 25 177 1.6 1.6 0.00 0.00 0.00 81 1013.8
20260506222133 25 174 1.6 1.6 0.00 0.00 0.00 81 1014.0
20260506221631 25 163 0.0 1.6 0.00 0.00 0.00 80 1013.8
20260506221129 25 177 1.6 1.6 0.00 0.00 0.00 80 1013.6
20260506220626 26 197 1.6 3.2 0.00 0.00 0.00 77 1013.6
20260506220121 26 189 3.2 3.2 0.00 0.00 0.00 76 1013.5
20260506215618 26 182 0.0 1.6 0.00 0.00 0.00 77 1013.7
20260506215113 26 192 1.6 1.6 0.00 0.00 0.00 77 1013.6
20260506214610 26 184 0.0 1.6 0.00 0.00 0.00 75 1013.9
20260506214108 26 178 3.2 4.8 0.00 0.00 0.00 76 1013.9
20260506213606 26 177 1.6 1.6 0.00 0.00 0.00 76 1013.8
20260506213103 26 181 1.6 1.6 0.00 0.00 0.00 76 1014.0
20260506212600 26 177 0.0 1.6 0.00 0.00 0.00 78 1013.9
20260506212054 26 188 1.6 3.2 0.00 0.00 0.00 77 1014.0
20260506211551 26 186 0.0 0.0 0.00 0.00 0.00 78 1014.0
20260506211048 26 192 1.6 1.6 0.00 0.00 0.00 77 1014.0
20260506210544 26 205 3.2 3.2 0.00 0.00 0.00 77 1014.0
20260506210041 26 208 3.2 4.8 0.00 0.00 0.00 76 1014.0
20260506205538 26 170 1.6 1.6 0.00 0.00 0.00 78 1014.0
20260506205033 26 212 1.6 1.6 0.00 0.00 0.00 77 1013.7
20260506204531 26 153 1.6 1.6 0.00 0.00 0.00 76 1014.0
20260506204028 26 202 1.6 3.2 0.00 0.00 0.00 75 1013.9
20260506203526 26 179 0.0 0.0 0.00 0.00 0.00 75 1014.3
20260506203022 27 207 3.2 3.2 0.00 0.00 0.00 73 1014.4
20260506202520 27 167 1.6 1.6 0.00 0.00 0.00 75 1014.4
20260506202016 27 186 1.6 1.6 0.00 0.00 0.00 75 1014.3
20260506201514 26 203 1.6 3.2 0.00 0.00 0.00 75 1014.4
20260506201010 26 195 0.0 1.6 0.00 0.00 0.00 76 1014.3
20260506200506 26 188 1.6 3.2 0.00 0.00 0.00 77 1014.2
20260506200003 26 200 6.4 8.0 0.00 0.00 0.00 75 1014.3
20260506195500 26 130 0.0 0.0 0.00 0.00 0.00 76 1014.6
20260506194955 26 192 3.2 4.8 0.00 0.00 0.00 76 1014.5
20260506194453 26 186 1.6 1.6 0.00 0.00 0.00 76 1014.6
20260506193945 26 182 1.6 1.6 0.00 0.00 0.00 76 1014.7
20260506193442 26 179 0.0 1.6 0.00 0.00 0.00 76 1014.4
20260506192938 26 191 1.6 3.2 0.00 0.00 0.00 76 1014.6
20260506192435 26 198 3.2 3.2 0.00 0.00 0.00 75 1014.8
20260506191932 26 189 1.6 3.2 0.00 0.00 0.00 75 1015.0
20260506191428 26 198 1.6 3.2 0.00 0.00 0.00 74 1014.8
20260506190925 26 192 0.0 0.0 0.00 0.00 0.00 75 1015.0
20260506190422 26 184 1.6 3.2 0.00 0.00 0.00 74 1015.1
20260506185919 26 187 1.6 3.2 0.00 0.00 0.00 73 1015.3
20260506185416 27 196 1.6 1.6 0.00 0.00 0.00 71 1015.4
20260506184913 26 198 1.6 1.6 0.00 0.00 0.00 74 1015.3
20260506184410 27 201 1.6 1.6 0.00 0.00 0.00 71 1015.3
20260506183907 27 183 0.0 1.6 0.00 0.00 0.00 71 1015.6
20260506183402 27 166 1.6 1.6 0.00 0.00 0.00 72 1015.6
20260506182900 26 190 1.6 3.2 0.00 0.00 0.00 74 1015.7
20260506182357 26 198 0.0 1.6 0.00 0.00 0.00 75 1016.0
20260506181854 26 214 3.2 4.8 0.00 0.00 0.00 74 1015.4
20260506181352 26 183 1.6 1.6 0.00 0.00 0.00 75 1015.7
20260506180849 26 190 0.0 1.6 0.00 0.00 0.00 75 1015.7
20260506180345 26 193 0.0 1.6 0.00 0.00 0.00 77 1015.7
20260506175842 26 196 1.6 3.2 0.00 0.00 0.00 74 1015.8
20260506175339 26 185 3.2 3.2 0.00 0.00 0.00 74 1015.9
20260506174835 26 188 3.2 3.2 0.00 0.00 0.00 76 1015.9
20260506174333 26 199 1.6 3.2 0.00 0.00 0.00 76 1016.1
20260506173830 25 208 4.8 8.0 0.00 0.00 0.00 76 1016.3
20260506173327 26 208 4.8 4.8 0.00 0.00 0.00 75 1016.2
20260506172824 26 51 4.8 8.0 0.00 0.00 0.00 76 1016.1
20260506172321 26 195 1.6 3.2 0.00 0.00 0.00 74 1016.1
20260506171818 26 209 3.2 4.8 0.00 0.00 0.00 73 1016.1
20260506171315 26 114 1.6 3.2 0.00 0.00 0.00 73 1016.3
20260506170813 27 180 0.0 1.6 0.00 0.00 0.00 72 1016.3
20260506170308 27 212 3.2 3.2 0.00 0.00 0.00 71 1016.1
20260506165808 26 196 1.6 3.2 0.00 0.00 0.00 71 1016.4
20260506165306 27 200 1.6 1.6 0.00 0.00 0.00 72 1016.4
20260506164801 26 197 3.2 3.2 0.00 0.00 0.00 73 1016.5
20260506164258 26 181 1.6 1.6 0.00 0.00 0.00 74 1016.4
20260506163755 26 177 1.6 1.6 0.00 0.00 0.00 73 1016.2
20260506163250 26 180 0.0 1.6 0.00 0.00 0.00 73 1016.1
20260506162746 26 209 4.8 4.8 0.00 0.00 0.00 72 1016.4
20260506162244 26 195 1.6 3.2 0.00 0.00 0.00 71 1016.3
20260506161741 26 173 0.0 1.6 0.00 0.00 0.00 72 1016.5
20260506161238 26 195 4.8 8.0 0.00 0.00 0.00 71 1016.6
20260506160736 26 177 1.6 3.2 0.00 0.00 0.00 71 1016.8
20260506160232 25 171 1.6 1.6 0.00 0.00 0.00 72 1016.7
20260506155731 25 188 3.2 3.2 0.00 0.00 0.00 71 1016.6
20260506155227 26 199 3.2 4.8 0.00 0.00 0.00 71 1016.8
20260506153335 25 170 0.0 0.0 0.00 0.00 0.00 70 1016.5
20260506152832 26 181 4.8 4.8 0.00 0.00 0.00 69 1016.9
20260506152329 25 170 1.6 3.2 0.00 0.00 0.00 71 1016.6
20260506151828 25 179 4.8 8.0 0.00 0.00 0.00 70 1016.8
20260506151324 25 150 3.2 4.8 0.00 0.00 0.00 71 1016.8
20260506150821 25 164 0.0 1.6 0.00 0.00 0.00 73 1016.7
20260506150318 25 190 3.2 3.2 0.00 0.00 0.00 73 1016.7
20260506145815 25 177 1.6 1.6 0.00 0.00 0.00 77 1016.8
20260506145311 25 175 0.0 0.0 0.00 0.00 0.00 77 1016.4
20260506144809 25 192 3.2 4.8 0.00 0.00 0.00 79 1016.5
20260506144305 24 180 0.0 0.0 0.00 0.00 0.00 79 1016.5
20260506143803 24 164 1.6 1.6 0.00 0.00 0.00 78 1016.4
20260506143300 24 176 0.0 1.6 0.00 0.00 0.00 77 1016.3
20260506142758 24 179 0.0 1.6 0.00 0.00 0.00 77 1016.3
20260506142256 24 170 0.0 0.0 0.00 0.00 0.00 78 1016.4
20260506141754 23 139 0.0 0.0 0.00 0.00 0.00 78 1016.2
20260506141252 24 171 0.0 0.0 0.00 0.00 0.00 79 1016.4
20260506140749 23 179 1.6 1.6 0.00 0.00 0.00 81 1016.6
20260506140246 23 175 0.0 1.6 0.00 0.00 0.00 83 1016.5
20260506135743 23 206 3.2 3.2 0.00 0.00 0.00 83 1016.2
20260506135239 23 168 0.0 0.0 0.00 0.00 0.00 83 1016.1
20260506134736 23 157 0.0 0.0 0.00 0.00 0.00 84 1016.2
20260506134233 23 166 1.6 3.2 0.00 0.00 0.00 84 1016.3
20260506133730 23 179 0.0 0.0 0.00 0.00 0.00 85 1016.0
20260506133226 22 172 0.0 0.0 0.00 0.00 0.00 86 1016.2
20260506132724 22 178 0.0 0.0 0.00 0.00 0.00 86 1016.4
20260506132221 22 151 0.0 1.6 0.00 0.00 0.00 87 1016.3
20260506131719 22 168 0.0 0.0 0.00 0.00 0.00 87 1016.1
20260506131214 22 147 0.0 0.0 0.00 0.00 0.00 87 1016.2
20260506130711 22 183 0.0 1.6 0.00 0.00 0.00 88 1015.9
20260506130208 22 181 1.6 1.6 0.00 0.00 0.00 88 1016.1
20260506125706 22 165 0.0 0.0 0.00 0.00 0.00 88 1016.2
20260506125204 21 165 0.0 0.0 0.00 0.00 0.00 88 1016.0
20260506124702 21 171 0.0 0.0 0.00 0.00 0.00 89 1015.9
20260506124200 21 180 0.0 1.6 0.00 0.00 0.00 89 1015.9
20260506123657 21 169 0.0 0.0 0.00 0.00 0.00 90 1015.9
20260506123155 21 169 0.0 0.0 0.00 0.00 0.00 90 1015.7
20260506122652 21 167 0.0 0.0 0.00 0.00 0.00 91 1016.2
20260506122149 21 155 0.0 0.0 0.00 0.00 0.00 92 1015.9
20260506121647 21 157 0.0 0.0 0.00 0.00 0.00 92 1016.0
20260506121143 20 147 0.0 0.0 0.00 0.00 0.00 93 1016.0
20260506120641 20 182 1.6 1.6 0.00 0.00 0.00 94 1015.7
20260506120138 20 164 0.0 0.0 0.00 0.00 0.00 96 1015.7
20260506115637 20 172 0.0 0.0 0.00 0.00 0.00 97 1015.8
20260506115134 20 184 0.0 0.0 0.00 0.00 0.00 98 1015.6
20260506114631 19 184 0.0 0.0 0.00 0.00 0.00 98 1015.6
20260506114129 19 184 0.0 0.0 0.00 0.00 0.00 98 1015.6
20260506113628 18 184 0.0 0.0 0.00 0.00 0.00 98 1015.5
20260506113124 18 184 0.0 0.0 0.00 0.00 0.00 98 1015.6
20260506112620 18 184 0.0 0.0 0.00 0.00 0.00 98 1015.4
20260506112118 18 183 0.0 0.0 0.00 0.00 0.00 98 1015.4
20260506111616 18 183 0.0 0.0 0.00 0.00 0.00 98 1015.3
20260506111113 17 183 0.0 0.0 0.00 0.00 0.00 98 1015.5
20260506110610 17 183 0.0 0.0 0.00 0.00 0.00 98 1015.4
20260506110108 17 183 0.0 0.0 0.00 0.00 0.00 98 1015.4
20260506105604 17 183 0.0 0.0 0.00 0.00 0.00 98 1015.2
20260506105101 17 182 0.0 0.0 0.00 0.00 0.00 98 1015.4
20260506104559 17 182 0.0 0.0 0.00 0.00 0.00 98 1015.2
20260506104057 17 182 0.0 0.0 0.00 0.00 0.00 98 1015.1
20260506103554 17 182 0.0 0.0 0.00 0.00 0.00 98 1015.1
20260506103050 17 182 0.0 0.0 0.00 0.00 0.00 98 1015.2
20260506102549 17 182 0.0 0.0 0.00 0.00 0.00 98 1015.3
20260506102046 17 182 0.0 0.0 0.00 0.00 0.00 97 1014.9
20260506101542 17 182 0.0 0.0 0.00 0.00 0.00 97 1015.1
20260506101039 17 182 0.0 0.0 0.00 0.00 0.00 97 1015.3
20260506100538 17 182 0.0 0.0 0.00 0.00 0.00 97 1015.1
20260506100036 17 182 0.0 0.0 0.00 0.00 0.00 97 1014.9
20260506095534 17 182 0.0 0.0 0.00 0.00 0.00 97 1015.1
20260506095030 17 182 0.0 0.0 0.00 0.00 0.00 97 1015.1
20260506094528 17 182 0.0 0.0 0.00 0.00 0.00 96 1014.9
20260506094026 17 182 0.0 0.0 0.00 0.00 0.00 96 1015.0
20260506093524 17 182 0.0 0.0 0.00 0.00 0.00 96 1015.0
20260506093021 17 182 0.0 0.0 0.00 0.00 0.00 96 1015.2
20260506092519 17 182 0.0 0.0 0.00 0.00 0.00 96 1014.9
20260506092015 17 182 0.0 0.0 0.00 0.00 0.00 96 1015.1
20260506091514 17 182 0.0 0.0 0.00 0.00 0.00 95 1015.2
20260506091010 17 183 0.0 0.0 0.00 0.00 0.00 95 1015.1
20260506090508 18 183 0.0 0.0 0.00 0.00 0.00 95 1015.3
20260506090004 18 183 0.0 0.0 0.00 0.00 0.00 95 1015.3
20260506085502 18 183 0.0 0.0 0.00 0.00 0.00 95 1015.3
20260506084958 18 183 0.0 0.0 0.00 0.00 0.00 94 1015.2
20260506084454 18 183 0.0 0.0 0.00 0.00 0.00 94 1015.2
20260506083950 18 183 0.0 0.0 0.00 0.00 0.00 94 1015.3
20260506083448 18 183 0.0 0.0 0.00 0.00 0.00 94 1015.3
20260506082945 18 183 0.0 0.0 0.00 0.00 0.00 94 1015.2
20260506082442 18 183 0.0 0.0 0.00 0.00 0.00 94 1015.1
20260506081938 18 183 0.0 0.0 0.00 0.00 0.00 94 1015.2
20260506081436 18 183 0.0 0.0 0.00 0.00 0.00 94 1014.9
20260506080933 18 183 0.0 0.0 0.00 0.00 0.00 94 1015.2
20260506080430 18 183 0.0 0.0 0.00 0.00 0.00 94 1015.4
20260506073414 18 183 0.0 0.0 0.00 0.00 0.00 94 1014.8
20260506072912 18 183 0.0 0.0 0.00 0.00 0.00 94 1015.1
20260506072409 18 183 0.0 0.0 0.00 0.00 0.00 94 1014.9
20260506071906 18 183 0.0 0.0 0.00 0.00 0.00 93 1014.8
20260506071404 18 183 0.0 0.0 0.00 0.00 0.00 93 1015.0
20260506070901 18 183 0.0 0.0 0.00 0.00 0.00 93 1014.9
20260506070357 18 183 0.0 0.0 0.00 0.00 0.00 93 1015.1
20260506062335 18 183 0.0 0.0 0.00 0.00 0.00 91 1015.2
20260506061830 19 183 0.0 0.0 0.00 0.00 0.00 90 1015.3
20260506061328 19 184 0.0 0.0 0.00 0.00 0.00 90 1015.3
20260506060826 19 184 0.0 0.0 0.00 0.00 0.00 90 1015.3
20260506060323 19 184 0.0 0.0 0.00 0.00 0.00 89 1015.4
20260506051255 18 184 0.0 0.0 0.00 0.00 0.00 87 1015.8
20260506050753 19 184 0.0 0.0 0.00 0.00 0.00 87 1015.9
20260506050250 19 184 0.0 0.0 0.00 0.00 0.00 86 1016.1
20260506044741 19 184 0.0 0.0 0.00 0.00 0.00 86 1016.2
20260506044238 19 184 0.0 0.0 0.00 0.00 0.00 85 1016.3
20260506043735 19 184 0.0 0.0 0.00 0.00 0.00 85 1016.3
20260506043233 19 184 0.0 0.0 0.00 0.00 0.00 84 1016.2
20260506042731 20 184 0.0 0.0 0.00 0.00 0.00 83 1016.3
20260506042230 20 184 0.0 0.0 0.00 0.00 0.00 83 1016.3
20260506041728 20 184 0.0 0.0 0.00 0.00 0.00 83 1016.1
20260506041224 20 184 0.0 0.0 0.00 0.00 0.00 82 1016.2
20260506040722 20 184 0.0 0.0 0.00 0.00 0.00 82 1016.3
20260506040219 20 184 0.0 0.0 0.00 0.00 0.00 82 1016.0
20260506035715 20 184 0.0 0.0 0.00 0.00 0.00 82 1016.4
20260506035212 20 184 0.0 0.0 0.00 0.00 0.00 82 1016.1
20260506034709 20 184 0.0 0.0 0.00 0.00 0.00 82 1016.1
20260506034207 20 184 0.0 0.0 0.00 0.00 0.00 82 1016.0
20260506033704 20 184 0.0 0.0 0.00 0.00 0.00 82 1015.9
20260506033200 20 184 0.0 0.0 0.00 0.00 0.00 81 1016.0
20260506032657 20 184 0.0 0.0 0.00 0.00 0.00 80 1016.1
20260506032154 20 183 0.0 0.0 0.00 0.00 0.00 80 1016.1
20260506031651 20 183 0.0 0.0 0.00 0.00 0.00 80 1016.2
20260506031148 20 183 1.6 1.6 0.00 0.00 0.00 79 1016.1
20260506030647 20 183 0.0 0.0 0.00 0.00 0.00 79 1016.1
20260506030143 20 183 0.0 0.0 0.00 0.00 0.00 79 1016.0
20260506025640 20 183 0.0 0.0 0.00 0.00 0.00 79 1016.3
20260506025136 20 183 0.0 0.0 0.00 0.00 0.00 79 1016.3
20260506024634 20 183 0.0 0.0 0.00 0.00 0.00 79 1016.4
20260506024130 20 183 0.0 0.0 0.00 0.00 0.00 78 1016.6
20260506023626 20 183 0.0 0.0 0.00 0.00 0.00 78 1016.6
20260506023124 20 183 0.0 0.0 0.00 0.00 0.00 79 1016.5
20260506022621 20 183 0.0 0.0 0.00 0.00 0.00 78 1016.7
20260506022118 20 183 0.0 0.0 0.00 0.00 0.00 77 1016.8
20260506021616 20 183 0.0 1.6 0.00 0.00 0.00 78 1016.6
20260506021113 20 183 0.0 0.0 0.00 0.00 0.00 78 1016.4
20260506020610 19 183 0.0 0.0 0.00 0.00 0.00 79 1016.6
20260506020108 19 182 0.0 0.0 0.00 0.00 0.00 78 1016.4
20260506015605 20 182 0.0 0.0 0.00 0.00 0.00 78 1016.4